Visibility
15.0 15.0 15.0 15.0 15.0 15.0 15.0 15.0 15.0 15.0 15.0 15.0 15.0 15.0 15.0 15.0 15.0 15.0 15.0 15.0 15.0 15.0 15.0 15.0 15.0 15.0 1.0 4.5 5.0 9.0 8.0 5.2 3.7 14.7 15.0 15.0 10.5 15.0 15.0 8.7 7.9 15.0 14.5
15.0 15.0 15.0 15.0 15.0 15.0 15.0 15.0 15.0 15.0 15.0 15.0 15.0 15.0 15.0 15.0 15.0 15.0 15.0 15.0 15.0 15.0 15.0 15.0 15.0 7.9 8.0 6.2 3.0 3.0 6.6 4.6 2.9 4.0 14.3 8.0 10.5 15.0 15.0 2.0 15.0 15.0 15.0
15.0 15.0 15.0 15.0 15.0 15.0 15.0 15.0 15.0 15.0 15.0 15.0 15.0 15.0 15.0 15.0 15.0 15.0 15.0 15.0 15.0 15.0 15.0 15.0 15.0 15.0 13.6 6.8 7.7 12.9 3.6 4.1 8.5 7.1 10.8 0.3 0.3 1.2 0.1 0.2 0.1 0.1 2.0
15.0 15.0 15.0 15.0 15.0 15.0 15.0 15.0 15.0 15.0 15.0 15.0 15.0 15.0 15.0 15.0 15.0 15.0 15.0 15.0 15.0 15.0 15.0 15.0 15.0 15.0 15.0 15.0 15.0 12.9 12.4 9.1 1.1 1.6 0.6 0.1 5.0 0.1 0.6 0.1 0.0 0.2 0.1
15.0 15.0 15.0 15.0 15.0 15.0 15.0 15.0 15.0 15.0 15.0 15.0 15.0 15.0 15.0 15.0 15.0 15.0 15.0 15.0 15.0 15.0 15.0 15.0 15.0 15.0 15.0 15.0 15.0 15.0 15.0 15.0 6.4 0.1 0.1 0.1 0.1 0.1 0.1 0.4 0.2 0.3 0.1
15.0 15.0 15.0 15.0 15.0 15.0 15.0 15.0 15.0 15.0 15.0 15.0 15.0 15.0 15.0 15.0 15.0 15.0 15.0 15.0 15.0 15.0 15.0 15.0 15.0 15.0 15.0 15.0 15.0 15.0 15.0 15.0 15.0 0.8 0.3 0.3 15.0 15.0 15.0 1.3 2.5 0.1 0.1
15.0 15.0 15.0 15.0 15.0 15.0 15.0 15.0 15.0 15.0 15.0 15.0 15.0 15.0 15.0 15.0 15.0 15.0 15.0 15.0 15.0 15.0 15.0 15.0 15.0 15.0 15.0 15.0 15.0 15.0 15.0 15.0 15.0 15.0 13.7 5.4 13.6 15.0 14.3 3.3 14.1 15.0 15.0
15.0 15.0 15.0 15.0 15.0 15.0 15.0 15.0 15.0 15.0 15.0 15.0 15.0 15.0 15.0 15.0 15.0 15.0 15.0 15.0 15.0 15.0 15.0 15.0 15.0 15.0 15.0 15.0 15.0 15.0 15.0 15.0 15.0 15.0 15.0 15.0 15.0 15.0 15.0 14.6 14.7 5.0 0.2
15.0 15.0 15.0 15.0 15.0 15.0 15.0 15.0 15.0 15.0 15.0 15.0 15.0 15.0 15.0 15.0 15.0 15.0 15.0 15.0 15.0 15.0 15.0 15.0 15.0 15.0 15.0 15.0 15.0 14.2 15.0 15.0 15.0 15.0 15.0 15.0 15.0 15.0 11.5 15.0 0.1 0.1 0.1
15.0 15.0 15.0 15.0 15.0 15.0 15.0 15.0 15.0 15.0 15.0 15.0 15.0 15.0 15.0 15.0 15.0 15.0 15.0 15.0 15.0 15.0 15.0 15.0 15.0 15.0 15.0 15.0 15.0 15.0 15.0 15.0 15.0 15.0 15.0 15.0 15.0 15.0 15.0 7.9 15.0 1.5 10.1
15.0 15.0 15.0 15.0 15.0 15.0 15.0 15.0 15.0 15.0 15.0 15.0 15.0 15.0 15.0 15.0 15.0 15.0 15.0 15.0 15.0 15.0 15.0 15.0 15.0 15.0 15.0 13.7 15.0 15.0 15.0 15.0 14.3 15.0 15.0 15.0 15.0 15.0 15.0 0.5 14.3 14.1 8.7
15.0 15.0 15.0 15.0 15.0 15.0 15.0 15.0 15.0 15.0 15.0 15.0 15.0 15.0 15.0 15.0 15.0 15.0 15.0 15.0 15.0 15.0 15.0 15.0 15.0 15.0 15.0 15.0 15.0 15.0 15.0 15.0 15.0 15.0 15.0 12.1 15.0 1.0 0.2 0.2 15.0 15.0 15.0
15.0 15.0 15.0 15.0 15.0 15.0 15.0 15.0 15.0 15.0 15.0 15.0 15.0 15.0 15.0 15.0 15.0 15.0 15.0 15.0 15.0 15.0 15.0 15.0 15.0 15.0 15.0 15.0 15.0 15.0 15.0 15.0 7.2 4.9 15.0 15.0 15.0 15.0 1.4 0.1 0.1 0.3 0.5
15.0 15.0 15.0 15.0 15.0 15.0 15.0 15.0 15.0 15.0 15.0 15.0 15.0 15.0 15.0 15.0 15.0 15.0 15.0 15.0 15.0 15.0 15.0 15.0 15.0 7.5 15.0 15.0 15.0 15.0 15.0 15.0 10.5 4.0 0.0 0.0 12.7 0.1 0.1 0.2 0.2 0.1 0.8
15.0 15.0 15.0 15.0 15.0 15.0 15.0 15.0 15.0 15.0 15.0 15.0 15.0 15.0 9.1 13.8 15.0 15.0 15.0 13.5 6.1 15.0 1.9 15.0 15.0 14.6 15.0 15.0 15.0 15.0 15.0 15.0 15.0 9.8 0.0 0.0 0.0 0.2 0.1 0.3 7.4 0.3 11.4
15.0 15.0 15.0 15.0 15.0 15.0 15.0 15.0 15.0 15.0 15.0 15.0 15.0 15.0 15.0 11.6 11.3 15.0 5.4 2.1 15.0 14.6 3.7 6.6 1.5 8.8 15.0 15.0 15.0 15.0 15.0 15.0 15.0 15.0 0.1 0.0 0.0 0.0 0.0 0.0 0.0 0.0 0.4
15.0 15.0 15.0 15.0 15.0 15.0 15.0 15.0 15.0 15.0 15.0 15.0 15.0 15.0 15.0 15.0 13.3 4.5 13.8 14.2 11.7 5.4 1.8 2.4 15.0 15.0 15.0 15.0 15.0 15.0 15.0 15.0 15.0 3.3 0.0 0.0 0.0 0.0 0.0 0.0 0.0 0.0 0.0
15.0 15.0 15.0 15.0 15.0 15.0 15.0 15.0 15.0 15.0 15.0 15.0 15.0 15.0 15.0 15.0 15.0 15.0 8.7 7.6 5.0 9.8 15.0 15.0 3.2 15.0 15.0 15.0 15.0 15.0 12.4 15.0 15.0 5.9 0.1 0.0 0.0 0.0 0.0 0.0 0.0 0.0 0.0
15.0 15.0 15.0 15.0 15.0 15.0 15.0 15.0 15.0 15.0 14.8 8.7 12.1 15.0 15.0 15.0 15.0 15.0 12.1 2.5 3.7 7.1 4.3 3.6 11.0 15.0 15.0 15.0 15.0 2.3 5.3 15.0 14.6 6.4 0.3 0.0 0.0 0.0 0.0 0.1 0.1 0.0 0.0
15.0 15.0 15.0 15.0 15.0 15.0 15.0 15.0 15.0 15.0 9.3 12.7 15.0 15.0 15.0 6.8 5.8 15.0 15.0 15.0 15.0 15.0 15.0 7.8 6.9 14.5 15.0 15.0 14.2 3.3 8.4 14.0 15.0 5.3 9.7 0.0 0.0 0.0 0.0 0.0 0.0 0.0 0.1
15.0 15.0 15.0 15.0 15.0 15.0 15.0 15.0 13.8 9.0 11.2 14.9 15.0 15.0 7.5 7.0 8.2 15.0 15.0 14.4 14.5 10.2 5.8 4.2 4.7 7.2 14.7 4.3 3.4 3.0 4.4 5.6 15.0 15.0 2.5 0.5 0.0 0.0 0.0 0.0 0.0 0.0 0.1
15.0 15.0 15.0 15.0 15.0 15.0 15.0 15.0 15.0 14.2 15.0 14.9 14.8 15.0 10.8 15.0 14.4 14.8 10.7 4.8 12.6 15.0 12.8 4.1 3.9 5.3 3.5 0.4 0.7 0.9 0.9 3.0 11.9 11.7 3.3 2.2 0.1 0.0 0.0 0.0 0.1 0.0 0.1
15.0 14.4 15.0 15.0 15.0 15.0 14.9 15.0 15.0 15.0 15.0 15.0 15.0 15.0 13.8 13.8 15.0 15.0 15.0 15.0 14.6 11.1 8.6 6.7 5.0 4.6 7.1 5.8 4.1 1.5 0.4 2.1 3.9 3.6 3.2 2.5 0.0 0.0 0.0 0.5 0.4 0.1 0.1
14.6 15.0 15.0 15.0 15.0 15.0 15.0 15.0 15.0 14.3 14.8 15.0 15.0 15.0 15.0 15.0 15.0 15.0 15.0 14.8 15.0 10.7 10.4 8.6 8.3 9.2 6.1 5.7 4.2 5.0 3.0 2.1 1.9 0.3 0.4 0.3 0.0 0.0 0.0 0.3 0.5 0.1 0.1
15.0 15.0 15.0 15.0 15.0 15.0 15.0 15.0 15.0 15.0 15.0 15.0 15.0 15.0 15.0 15.0 15.0 15.0 15.0 15.0 14.1 4.5 12.2 15.0 13.9 12.8 4.4 1.7 1.5 1.6 10.0 15.0 15.0 8.7 0.2 0.0 0.0 0.0 0.1 0.1 0.2 0.2 0.1
15.0 15.0 15.0 15.0 15.0 15.0 15.0 15.0 15.0 15.0 15.0 15.0 15.0 15.0 12.8 15.0 15.0 15.0 15.0 4.6 1.4 3.2 15.0 13.2 4.8 4.0 1.4 0.8 2.4 7.5 13.9 13.2 9.2 10.8 0.1 0.0 0.0 0.1 0.1 0.1 0.1 0.1 0.1